Tracking 19242 objects as of 18-Sep-2018
HD Live streaming from Space Station
objects crossing your sky now

FENGYUN 1C DEB

Track FENGYUN 1C DEB now!
10-day predictions


NORAD ID: 30951
Int'l Code: 1999-025BAR
Perigee: 618.9 km
Apogee: 807.9 km
Inclination: 99.9 °
Period: 98.9 minutes
Semi major axis: 7084 km
RCS: 0.0121 m2 (small)
Launch date: May 10, 1999
Source: People's Republic of China (PRC)
Launch site: Taiyaun Space Center, China (TSC)

Note: This is SATELLITE DEBRIS
aabbcc
Your satellite tracking list
Your tracking list is empty




NASA's NSSDC Master Catalog

Two Line Element Set (TLE):
1 30951U 99025BAR 18260.98374388  .00000827  00000-0  18156-3 0  9991
2 30951  99.8985 266.5597 0133346 218.3679 196.2108 14.55955463609485
Source of the keplerian elements: AFSPC